Regional Weather Roundup
Issued by NWS

Home | Current Version | Previous Version | Text Only | Print | Product List | Glossary On
Versions: 1 2 3 4 5 6 7 8 9 10 11 12 13 14 15 16 17 18 19 20 21 22 23 24 25 26 27 28 29 30 31 32 33 34 35 36 37 38 39 40 41 42 43 44 45 46 47 48 49 50
000
ASUS44 KBMX 271010
RWRAL

ALABAMA REGIONAL WEATHER ROUNDUP
NATIONAL WEATHER SERVICE BIRMINGHAM AL
500 AM CDT MON APR 27 2015

NOTE: "FAIR" INDICATES FEW OR NO CLOUDS BELOW 12,000 FEET
WITH NO SIGNIFICANT WEATHER AND/OR OBSTRUCTIONS TO VISIBILITY.

THE REMARK "TC" DENOTES TEMPERATURE IN DEGREES CELSIUS.

ALZ001>011-014-016>018-020-271100-
NORTH ALABAMA

CITY           SKY/WX    TMP DP  RH WIND       PRES   REMARKS
MUSCLE SHOALS  CLEAR     50  43  77 VRB5      29.90S
HUNTSVILLE     CLEAR     49  46  90 N6        29.88S
DECATUR        CLEAR     47  46  97 N5        29.88F FOG
HALEYVILLE       N/A     47  46  96 CALM      29.91R
GADSDEN        CLEAR    N/A N/A N/A N5        29.85S
$$

ALZ012-013-022-023-030>036-040>044-271100-
WEST CENTRAL ALABAMA

CITY           SKY/WX    TMP DP  RH WIND       PRES   REMARKS
TUSCALOOSA     PTCLDY    54  49  83 N7        29.87S
$$

ALZ015-024>027-033>036-040>044-271100-
CENTRAL ALABAMA

CITY           SKY/WX    TMP DP  RH WIND       PRES   REMARKS
BIRMINGHAM     CLEAR     50  48  93 CALM      29.89R
MONTGOMERY     PTCLDY    60  52  74 N7        29.83R
SHELBY CO ARPT PTCLDY    55  47  74 N3        29.86R
MAXWELL AFB    PTCLDY    58  53  81 N7        29.82R
GREENVILLE     FAIR      60  54  80 N6        29.80R
$$

ALZ019-021-028-029-037-038-045>048-271100-
EAST CENTRAL ALABAMA

CITY           SKY/WX    TMP DP  RH WIND       PRES   REMARKS
ANNISTON       CLEAR     51  46  83 CALM      29.86R
ALEXANDER CITY PTCLDY    57  49  74 N6        29.84S
AUBURN         NOT AVBL
$$

ALZ051>064-271100-
SOUTHWEST ALABAMA

CITY           SKY/WX    TMP DP  RH WIND       PRES   REMARKS
MOBILE         CLOUDY    68  63  84 NE14      29.75R
BROOKLEY FIELD CLOUDY    70  66  87 N9        29.75R
EVERGREEN      MOCLDY    63  59  87 N6        29.80R
$$

ALZ049-050-065>069-271100-
SOUTHEAST ALABAMA

CITY           SKY/WX    TMP DP  RH WIND       PRES   REMARKS
DOTHAN         CLOUDY    64  60  87 N6        29.82R
OZARK          CLOUDY    65  58  77 N8        29.79R
TROY           MOCLDY    62  55  77 N7        29.81R
EUFAULA        FAIR      62  57  83 CALM      29.79R
$$



USA.gov is the U.S. government's official web portal to all federal, state and local government web resources and services.